Location: Julian California
(33.0790°N, 116.6010°W)
Time: 03:53:59
(UTC-08:00)

Lacrosse 5 rocket - Pass Details

Date: 12 July 2018
Orbit: 461 x 638 km, 57.0° (Epoch: 17 December)

Event Time Altitude Azimuth Distance (km) Brightness Sun altitude
Exits shadow 22:12:10 82° 18° (NNE) 557 1.2 -23.1°
Drops below altitude 10° 22:16:16 10° 38° (NE) 1,878 4.2 -23.7°
Sets 22:18:36 0° 39° (NE) 2,811 5.1 -24.0°
